Вернуться в каталог

FENGYUN 1C DEB

АктивенPO
NORAD 31071·DEBRIS·🇨🇳 China

Запущен May 10, 1999 с Taiyuan Satellite Launch Center

Loading…

Ближайшие Пролёты (ближайшие 24 часа)

TLE

СвежийSource: Space-Track

Эпоха: Sep 13, 2026, 12:54 UTC

1 31071U 99025BFR 26256.53793314  .00002970  00000-0  69222-3 0  9995
2 31071  99.0353   0.7855 0055174 172.9298 187.2687 14.54730110694877

Отслеживайте FENGYUN 1C DEB в реальном времени с AllMySat

Download on the App Store